Weather History for Appleton, MN

Change the Weather History Date:

Saturday, November 2, 2013

  Actual Average Record
Temperature  
Mean Temperature 40 °F -  
Max Temperature 53 °F 45 °F 68 °F (2008)
Min Temperature 28 °F 27 °F 8 °F (1996)
Degree Days  
Heating Degree Days 24    
Moisture  
Dew Point 33 °F    
Average Humidity 78    
Maximum Humidity 100    
Minimum Humidity 47    
Precipitation  
Precipitation 0.00 in - - ()
Sea Level Pressure  
Sea Level Pressure 30.02 in    
Wind  
Wind Speed 7 mph (West)    
Max Wind Speed 13 mph    
Max Gust Speed -    
Visibility 10 miles    
Events      
Averages and records for this station are not official NWS values.
T = Trace of Precipitation, MM = Missing Value Source: NWS Daily Summary

Daily Weather History Graph

Daily Weather History Graph

Search for Another Location

Airport:

Trip Planner

Search our weather history database for the weather conditions in past years. The results will help you decide how hot, cold, wet, or windy it might be!

Date:

Astronomy

Nov. 02, 2013 Rise Set
Actual Time 8:04 AM CDT 6:09 PM CDT
Civil Twilight 7:33 AM CDT 6:40 PM CDT
Nautical Twilight 6:58 AM CDT 7:15 PM CDT
Astronomical Twilight 6:24 AM CDT 7:49 PM CDT
Moon 7:01 AM CDT (11/2) 5:42 PM CDT (11/2)
Length of Visible Light 11h 06m
Length of Day
10h 05m
Waning Crescent, 1% of the Moon is Illuminated
Nov 2
Waning Crescent
Nov 3
New
Nov 9
First Quarter
Nov 17
Full
Nov 25
Last Quarter

Hourly Weather History & Observations

Time (CDT) Temp. Windchill Dew Point Humidity Pressure Visibility Wind Dir Wind Speed Gust Speed Precip Events Conditions
12:13 AM 42.8 °F 36.2 °F 37.4 °F 81% 29.93 in 7.0 mi NNW 12.7 mph - N/A   Overcast
12:33 AM 42.8 °F 38.0 °F 37.4 °F 81% 29.93 in 10.0 mi NNW 8.1 mph - N/A   Mostly Cloudy
12:53 AM 39.2 °F 33.6 °F 37.4 °F 93% 29.94 in 10.0 mi NW 8.1 mph - N/A   Scattered Clouds
1:13 AM 39.2 °F 33.0 °F 35.6 °F 87% 29.95 in 10.0 mi NW 9.2 mph - N/A   Clear
1:33 AM 39.2 °F 32.5 °F 35.6 °F 87% 29.96 in 10.0 mi NW 10.4 mph - N/A   Clear
1:53 AM 37.4 °F 31.4 °F 35.6 °F 93% 29.96 in 10.0 mi WNW 8.1 mph - N/A   Clear
2:13 AM 37.4 °F 31.4 °F 35.6 °F 93% 29.97 in 10.0 mi WNW 8.1 mph - N/A   Clear
2:33 AM 35.6 °F 29.2 °F 33.8 °F 93% 29.97 in 10.0 mi WNW 8.1 mph - N/A   Clear
2:53 AM 35.6 °F 29.9 °F 33.8 °F 93% 29.97 in 10.0 mi WNW 6.9 mph - N/A   Clear
3:13 AM 33.8 °F 27.7 °F 32.0 °F 93% 29.98 in 10.0 mi WNW 6.9 mph - N/A   Clear
3:33 AM 35.6 °F 29.9 °F 32.0 °F 87% 29.98 in 10.0 mi WNW 6.9 mph - N/A   Clear
3:53 AM 33.8 °F 27.7 °F 32.0 °F 93% 29.98 in 10.0 mi WNW 6.9 mph - N/A   Clear
4:13 AM 33.8 °F 27.7 °F 30.2 °F 87% 29.98 in 10.0 mi WNW 6.9 mph - N/A   Clear
4:33 AM 32.0 °F 26.4 °F 30.2 °F 93% 29.99 in 10.0 mi WNW 5.8 mph - N/A   Clear
4:53 AM 33.8 °F 28.6 °F 30.2 °F 87% 29.99 in 10.0 mi West 5.8 mph - N/A   Clear
5:13 AM 30.2 °F 25.4 °F 30.2 °F 100% 30.00 in 10.0 mi West 4.6 mph - N/A   Clear
5:34 AM 30.2 °F 23.4 °F 30.2 °F 100% 30.01 in 10.0 mi West 6.9 mph - N/A   Clear
5:53 AM 33.8 °F 28.6 °F 30.2 °F 87% 30.01 in 10.0 mi WNW 5.8 mph - N/A   Mostly Cloudy
6:13 AM 33.8 °F 28.6 °F 32.0 °F 93% 30.02 in 10.0 mi West 5.8 mph - N/A   Mostly Cloudy
6:33 AM 32.0 °F 28.7 °F 30.2 °F 93% 30.02 in 10.0 mi West 3.5 mph - N/A   Scattered Clouds
6:53 AM 28.4 °F 23.3 °F 26.6 °F 93% 30.03 in 7.0 mi West 4.6 mph - N/A   Clear
7:13 AM 28.4 °F 24.6 °F 26.6 °F 93% 30.03 in 10.0 mi West 3.5 mph - N/A   Clear
7:34 AM 28.4 °F 22.2 °F 28.4 °F 100% 30.04 in 10.0 mi WSW 5.8 mph - N/A   Clear
7:54 AM 28.4 °F 22.2 °F 26.6 °F 93% 30.04 in 10.0 mi WSW 5.8 mph - N/A   Clear
8:13 AM 28.4 °F 22.2 °F 26.6 °F 93% 30.04 in 7.0 mi West 5.8 mph - N/A   Clear
8:33 AM 28.4 °F 23.3 °F 28.4 °F 100% 30.04 in 5.0 mi WSW 4.6 mph - N/A   Clear
8:54 AM 30.2 °F 25.4 °F 30.2 °F 100% 30.05 in 7.0 mi WSW 4.6 mph - N/A   Clear
9:13 AM 33.8 °F 30.8 °F 32.0 °F 93% 30.05 in 7.0 mi WSW 3.5 mph - N/A   Clear
9:33 AM 35.6 °F 30.7 °F 33.8 °F 93% 30.06 in 10.0 mi WSW 5.8 mph - N/A   Clear
9:54 AM 35.6 °F 31.7 °F 33.8 °F 93% 30.06 in 10.0 mi West 4.6 mph - N/A   Clear
10:13 AM 37.4 °F 32.8 °F 33.8 °F 87% 30.06 in 10.0 mi West 5.8 mph - N/A   Clear
10:33 AM 39.2 °F 35.0 °F 35.6 °F 87% 30.06 in 10.0 mi WNW 5.8 mph - N/A   Clear
10:53 AM 42.8 °F 39.3 °F 35.6 °F 76% 30.06 in 10.0 mi WNW 5.8 mph - N/A   Clear
11:13 AM 44.6 °F 41.4 °F 35.6 °F 71% 30.06 in 10.0 mi WNW 5.8 mph - N/A   Clear
11:33 AM 44.6 °F 43.1 °F 35.6 °F 71% 30.07 in 10.0 mi WNW 3.5 mph - N/A   Clear
11:53 AM 46.4 °F 45.2 °F 35.6 °F 66% 30.07 in 10.0 mi West 3.5 mph - N/A   Clear
12:13 PM 48.2 °F - 35.6 °F 62% 30.07 in 10.0 mi Calm Calm - N/A   Clear
12:33 PM 48.2 °F - 35.6 °F 62% 30.07 in 10.0 mi Calm Calm - N/A   Clear
12:53 PM 48.2 °F - 35.6 °F 62% 30.07 in 10.0 mi Calm Calm - N/A   Clear
1:13 PM 50.0 °F - 35.6 °F 58% 30.06 in 10.0 mi West 4.6 mph - N/A   Clear
1:33 PM 51.8 °F - 35.6 °F 54% 30.06 in 10.0 mi WNW 6.9 mph - N/A   Clear
1:53 PM 51.8 °F - 35.6 °F 54% 30.04 in 10.0 mi West 3.5 mph - N/A   Clear
2:14 PM 51.8 °F - 35.6 °F 54% 30.04 in 10.0 mi Calm Calm - N/A   Clear
2:34 PM 53.6 °F - 33.8 °F 47% 30.04 in 10.0 mi West 6.9 mph - N/A   Clear
2:53 PM 53.6 °F - 33.8 °F 47% 30.04 in 10.0 mi WNW 8.1 mph - N/A   Clear
3:13 PM 53.6 °F - 35.6 °F 51% 30.04 in 10.0 mi NW 5.8 mph - N/A   Clear
3:34 PM 53.6 °F - 33.8 °F 47% 30.04 in 10.0 mi WNW 4.6 mph - N/A   Clear
3:53 PM 53.6 °F - 33.8 °F 47% 30.04 in 10.0 mi NW 6.9 mph - N/A   Clear
4:13 PM 53.6 °F - 33.8 °F 47% 30.04 in 7.0 mi NW 6.9 mph - N/A   Clear
4:34 PM 53.6 °F - 33.8 °F 47% 30.04 in 10.0 mi NNW 4.6 mph - N/A   Clear
4:53 PM 51.8 °F - 33.8 °F 50% 30.03 in 10.0 mi NW 5.8 mph - N/A   Clear
5:13 PM 51.8 °F - 33.8 °F 50% 30.03 in 10.0 mi NNW 3.5 mph - N/A   Clear
5:33 PM 51.8 °F - 33.8 °F 50% 30.03 in 10.0 mi Calm Calm - N/A   Clear
5:54 PM 48.2 °F - 33.8 °F 58% 30.02 in 10.0 mi Calm Calm - N/A   Clear
6:13 PM 44.6 °F - 33.8 °F 66% 30.02 in 10.0 mi Calm Calm - N/A   Clear
6:33 PM 42.8 °F - 33.8 °F 70% 30.02 in 10.0 mi Calm Calm - N/A   Clear
6:53 PM 39.2 °F 35.9 °F 33.8 °F 81% 30.03 in 10.0 mi East 4.6 mph - N/A   Clear
7:13 PM 39.2 °F 35.9 °F 33.8 °F 81% 30.03 in 10.0 mi East 4.6 mph - N/A   Clear
7:33 PM 39.2 °F 35.9 °F 33.8 °F 81% 30.03 in 10.0 mi ESE 4.6 mph - N/A   Clear
7:53 PM 39.2 °F 37.0 °F 32.0 °F 75% 30.02 in 10.0 mi ESE 3.5 mph - N/A   Clear
8:13 PM 37.4 °F 33.8 °F 33.8 °F 87% 30.03 in 10.0 mi ESE 4.6 mph - N/A   Clear
8:33 PM 39.2 °F 37.0 °F 33.8 °F 81% 30.02 in 10.0 mi SE 3.5 mph - N/A   Clear
8:53 PM 37.4 °F 34.9 °F 33.8 °F 87% 30.02 in 10.0 mi SE 3.5 mph - N/A   Clear
9:13 PM 37.4 °F 34.9 °F 33.8 °F 87% 30.02 in 10.0 mi SE 3.5 mph - N/A   Clear
9:34 PM 37.4 °F 33.8 °F 33.8 °F 87% 30.02 in 10.0 mi SE 4.6 mph - N/A   Clear
9:53 PM 35.6 °F 30.7 °F 33.8 °F 93% 30.02 in 10.0 mi SE 5.8 mph - N/A   Clear
10:13 PM 39.2 °F 34.2 °F 35.6 °F 87% 30.02 in 10.0 mi SE 6.9 mph - N/A   Clear
10:33 PM 41.0 °F 37.1 °F 35.6 °F 81% 30.02 in 10.0 mi SE 5.8 mph - N/A   Clear
10:53 PM 39.2 °F 34.2 °F 35.6 °F 87% 30.02 in 10.0 mi SE 6.9 mph - N/A   Clear
11:14 PM 41.0 °F 36.4 °F 33.8 °F 76% 30.02 in 10.0 mi SE 6.9 mph - N/A   Clear
11:33 PM 41.0 °F 37.1 °F 33.8 °F 76% 30.01 in 10.0 mi SSE 5.8 mph - N/A   Clear
11:53 PM 39.2 °F 35.0 °F 33.8 °F 81% 30.01 in 10.0 mi SSE 5.8 mph - N/A   Clear